Location: NJAA Observatory
(40.6819°N, 74.8979°W)
Time: 18:10:51
(UTC-04:00)

Cosmos 2237 Rocket - Visible Passes

Search period start: 27 April 2015 00:00
Search period end: 07 May 2015 00:00
Orbit: 834 x 851 km, 71.0° (Epoch: 27 April)

Date Brightness Start Highest point End Pass type
(mag) Time Alt. Az. Time Alt. Az. Time Alt. Az.
27 Apr 2.8 05:10:24 10° S 05:15:57 58° ESE 05:21:34 10° NNE visible
28 Apr 2.9 04:55:39 10° S 05:01:10 55° ESE 05:06:45 10° NNE visible
29 Apr 2.9 04:40:55 10° S 04:46:23 53° ESE 04:51:56 10° NNE visible
30 Apr 3.0 04:26:10 10° S 04:31:36 50° ESE 04:37:07 10° NE visible
01 May 3.0 04:12:09 14° S 04:16:49 48° ESE 04:22:18 10° NE visible
02 May 3.1 03:58:07 18° S 04:02:02 45° ESE 04:07:28 10° NE visible
03 May 3.1 03:44:02 22° SSE 03:47:15 43° ESE 03:52:39 10° NE visible
03 May 3.3 05:26:37 10° WSW 05:31:32 28° NW 05:36:23 10° N visible
04 May 3.2 03:29:52 26° SSE 03:32:28 41° ESE 03:37:49 10° NE visible
04 May 3.3 05:11:44 10° WSW 05:16:42 30° NW 05:21:37 10° N visible
05 May 3.2 03:15:39 29° SSE 03:17:41 39° ESE 03:22:59 10° NE visible
05 May 3.2 04:57:30 13° WSW 05:01:52 31° NW 05:06:52 10° N visible
06 May 3.2 03:01:24 31° SE 03:02:55 37° ESE 03:08:08 10° NE visible
06 May 3.2 04:43:14 16° WSW 04:47:03 32° WNW 04:52:07 10° N visible
